Regional Weather Roundup
Issued by NWS

Home | Current Version | Previous Version | Graphics & Text | Print | Product List | Glossary On
Versions: 1 2 3 4 5 6 7 8 9 10 11 12 13 14 15 16 17 18 19 20 21 22 23 24 25 26 27 28 29 30 31 32 33 34 35 36 37 38 39 40 41 42 43 44 45 46 47 48 49 50
000
ASUS43 KLOT 190206
RWRIL

ILLINOIS REGIONAL WEATHER ROUNDUP
NATIONAL WEATHER SERVICE CHICAGO/ROMEOVILLE IL
800 PM CST THU DEC 18 2014

NOTE: "FAIR" INDICATES FEW OR NO CLOUDS BELOW 12,000 FEET WITH NO
SIGNIFICANT WEATHER AND/OR OBSTRUCTIONS TO VISIBILITY.

* THESE STATIONS ARE NOT UNDER NWS QUALITY CONTROL. THEY ALSO MAY NOT
  REPORT WEATHER SUCH AS PRECIPITATION OR FOG.

ILZ001-002-007-009-015-016-024-190300-
NORTHWEST ILLINOIS

CITY           SKY/WX    TMP DP  RH WIND       PRES   REMARKS
MOLINE         CLOUDY    26  18  71 N5        30.28S WCI  20
STERLING*      PTCLDY    21  16  79 CALM      30.28S
SAVANNA*       CLOUDY    23  19  87 CALM      30.29S
$$

ILZ003-004-008-010-011-017-018-190300-
NORTH CENTRAL ILLINOIS

CITY           SKY/WX    TMP DP  RH WIND       PRES   REMARKS
ROCKFORD       CLOUDY    26  18  71 W5        30.28S WCI  20
FREEPORT*      CLOUDY    25  19  78 CALM      30.29R
ROCHELLE*      CLOUDY    25  18  74 CALM      30.28R
DE KALB*       CLOUDY    24  18  78 NW7       30.26R WCI  16
PERU*          CLOUDY    26  19  76 N3        30.29S
$$

ILZ005-006-012>014-019>023-190300-
NORTHEAST ILLINOIS

CITY           SKY/WX    TMP DP  RH WIND       PRES   REMARKS
CHICAGO-OHARE  CLOUDY    28  19  69 NW6       30.24S WCI  22
CHICAGO-MIDWAY CLOUDY    31  20  63 N3        30.26R
AURORA         CLOUDY    27  19  72 W3        30.27R
LANSING*       CLOUDY    27  20  75 W3        30.26S
JOLIET*        CLOUDY    25  19  79 W3        30.27S
WAUKEGAN       CLOUDY    27  23  85 NW3       30.24F
DUPAGE AIRPORT CLOUDY    27  19  72 NW6       30.25R WCI  20
KANKAKEE*      MOCLDY    25  20  81 W3        30.27F
WHEELING       CLOUDY    28  20  71 NW5       30.27S WCI  23
MORRIS*        CLOUDY    25  22  89 NW6       30.26F WCI  18
ROMEOVILLE*    CLOUDY    26  20  80 W5        30.26S WCI  20
NORTHERLY ISL    N/A     29  21  72 W5          N/A  WCI  24
$$

LMZ740>746-190300-
SOUTHERN LAKE MICHIGAN

STATION/POSITION SKY/WX   TEMP    WIND        PRES    VSBY  WAVE
                          AIR SEA DIR/SP/G                  HT/PER
                          (F)     (DEG/KT/KT) (MB)    (MI)  (FT/S)
WAUKEGAN HARBOR            28     300/  4/ 11   N/A
HARRISON CRIB              28     310/  7/  8   N/A
BURNHAM HARBOR             29     250/  2/  8   N/A
CALUMET HARBOR             28     200/  5/  6 1023.2F
$$

ILZ025>027-034>036-040-047-049-050-058-095>099-190300-
WEST-CENTRAL ILLINOIS

CITY           SKY/WX    TMP DP  RH WIND       PRES   REMARKS
QUINCY         CLOUDY    28  23  81 NE5       30.27R WCI  23
GALESBURG*     CLOUDY    28  23  82 CALM      30.27R
MACOMB*        CLOUDY    28  24  82 NE3       30.29S
JACKSONVILLE*  CLOUDY    31  26  83 CALM      30.28R
PITTSFIELD*    CLOUDY    30  26  86 CALM      30.28S
$$

ILZ028>032-037-038-041>044-048-051>054-059>061-190300-
CENTRAL ILLINOIS

CITY           SKY/WX    TMP DP  RH WIND       PRES   REMARKS
PONTIAC        PTCLDY    25  21  85 N6        30.28F WCI  18
BLOOMINGTON    CLEAR     25  20  81 CALM      30.27S
DECATUR        CLOUDY    28  23  81 N5        30.27S WCI  23
PEORIA         CLOUDY    26  19  74 CALM      30.28S
LACON*         PTCLDY    22  19  87 CALM      30.27F
LINCOLN*       CLOUDY    28  24  82 CALM      30.29S
SPRINGFIELD    CLOUDY    30  23  75 N5        30.28S WCI  25
TAYLORVILLE    CLOUDY    30  25  80 N3        30.28R
$$

ILZ033-039-045-046-055>057-062-063-190300-
EAST-CENTRAL ILLINOIS

CITY           SKY/WX    TMP DP  RH WIND       PRES   REMARKS
CHAMPAIGN      CLOUDY    26  22  84 W3        30.27R
DANVILLE*      CLOUDY    27  23  84 N5        30.23F WCI  22
RANTOUL*       PTCLDY    27  22  82 CALM      30.26S
MATTOON        CLOUDY    28  23  81 N6        30.26R WCI  22
PARIS*         CLOUDY    29  26  88 CALM      30.27S
$$

ILZ079-100>102-190300-
SOUTHWEST ILLINOIS

CITY           SKY/WX    TMP DP  RH WIND       PRES   REMARKS
ALTON          CLOUDY    32  27  80 NE8       30.29R WCI  25
BELLEVILLE     CLOUDY    33  27  79 NE2       30.27S
CAHOKIA*       CLOUDY    34  27  75 NE6       30.28R WCI  29
SPARTA*        CLOUDY    33  29  88 NE3       30.28R
$$

ILZ064>066-069>071-074>076-080>082-084>086-088>090-092>094-190300-
SOUTH-CENTRAL ILLINOIS

CITY           SKY/WX    TMP DP  RH WIND       PRES   REMARKS
CARBONDALE     CLOUDY    33  28  81 N3        30.27R
CAIRO*         CLOUDY    38  34  86 CALM      30.26S
EFFINGHAM*     CLOUDY    31  23  71 CALM      30.29S
MARION         CLOUDY    34  30  86 CALM      30.27S
MT. VERNON     CLOUDY    32  23  69 NE6       30.28R WCI  26
CENTRALIA*     CLOUDY    32  24  73 N5        30.28R WCI  27
SALEM*         CLOUDY    33  26  76 NE3       30.28R
METROPOLIS*    CLOUDY    36  34  95 CALM      30.25S
$$

ILZ067-068-072-073-078-083-087-091-190300-
SOUTHEAST ILLINOIS

CITY           SKY/WX    TMP DP  RH WIND       PRES   REMARKS
LAWRENCEVILLE  CLOUDY    31  25  78 N3        30.28S
FLORA*         CLEAR     31  26  80 N3        30.28S
FAIRFIELD*     CLOUDY    31  26  80 CALM      30.27R
HARRISBURG*    CLOUDY    33  28  83 N3        30.28S
ROBINSON*      CLOUDY    29  25  82 CALM      30.28F
CARMI*         CLOUDY    34  29  84 NE5       30.27S WCI  29
$$

ABBREVIATIONS USED IN REMARKS
   TC - TEMPERATURE IN CELSIUS
  WCI - WIND CHILL INDEX
   HX - HEAT INDEX
  VSB - VISIBILITY
$$



USA.gov is the U.S. government's official web portal to all federal, state and local government web resources and services.